Guymon, OK

8:32 PM CDT on April 19, 2018 (GMT -0500)
Guymon Municipal

Weather History for KGUY - January, 2013

Change the Weather History Date:

Tuesday, January 8, 2013

  Actual Average Record
Temperature  
Mean Temperature 45 °F 35 °F  
Max Temperature 59 °F 49 °F 79 °F (2002)
Min Temperature 30 °F 21 °F -3 °F (2010)
Degree Days  
Heating Degree Days 20 30  
Month to date heating degree days 277 244  
Since 1 July heating degree days 1853 2061  
Cooling Degree Days 0 0  
Month to date cooling degree days 0 0  
Year to date cooling degree days 0 0  
Moisture  
Dew Point 26 °F    
Average Humidity 53    
Maximum Humidity 78    
Minimum Humidity 28    
Precipitation  
Precipitation 0.00 in 0.00 in 0.12 in (2016)
Month to date precipitation T 0.05  
Year to date precipitation T 0.05  
Snow  
Snow 0.00 in - - ()
Month to date snowfall T  
Since 1 July snowfall 3.2  
Snow Depth 0.00 in    
Sea Level Pressure  
Sea Level Pressure 29.96 in    
Wind  
Wind Speed 11 mph (West)    
Max Wind Speed 21 mph    
Max Gust Speed 25 mph    
Visibility 10 miles    
Events      
T = Trace of Precipitation, MM = Missing Value Source: NWS Daily Summary

Daily Weather History Graph

Daily Weather History Graph

Search for Another Location

Airport or City:

Astronomy

Jan. 08, 2013 Rise Set
Actual Time 7:58 AM CST 5:47 PM CST
Civil Twilight 7:30 AM CST 6:15 PM CST
Nautical Twilight 6:58 AM CST 6:47 PM CST
Astronomical Twilight 6:27 AM CST 7:19 PM CST
Moon 4:34 AM CST (1/8) 2:51 PM CST (1/8)
Length of Visible Light 10h 45m
Length of Day
9h 48m
Waning Crescent, 13% of the Moon is Illuminated
Jan 8
Waning Crescent
Jan 11
New
Jan 18
First Quarter
Jan 26
Full
Feb 3
Last Quarter

Hourly Weather History & Observations

Time (CST) Temp. Windchill Dew Point Humidity Pressure Visibility Wind Dir Wind Speed Gust Speed Precip Events Conditions
12:53 AM 34.0 °F 26.6 °F 25.0 °F 70% 29.89 in 10.0 mi SW 9.2 mph - N/A   Clear
1:53 AM 33.1 °F 23.4 °F 25.0 °F 72% 29.88 in 10.0 mi SSW 13.8 mph - N/A   Clear
2:53 AM 32.0 °F 24.2 °F 24.1 °F 73% 29.89 in 10.0 mi SSW 9.2 mph - N/A   Clear
3:53 AM 30.0 °F 21.1 °F 24.1 °F 79% 29.90 in 10.0 mi SSW 10.4 mph - N/A   Clear
4:53 AM 32.0 °F 21.6 °F 25.0 °F 75% 29.86 in 10.0 mi SSW 15.0 mph - N/A   Clear
5:53 AM 30.9 °F 22.8 °F 25.0 °F 79% 29.85 in 10.0 mi South 9.2 mph - N/A   Clear
6:53 AM 32.0 °F 23.6 °F 25.0 °F 75% 29.87 in 10.0 mi SSW 10.4 mph - N/A   Clear
7:53 AM 33.1 °F 24.4 °F 25.0 °F 72% 29.88 in 10.0 mi SSW 11.5 mph - N/A   Clear
9:53 AM 37.9 °F 29.6 °F 27.0 °F 65% 29.92 in 10.0 mi SSW 13.8 mph - N/A   Clear
10:53 AM 46.0 °F 39.9 °F 28.9 °F 51% 29.91 in 10.0 mi SW 13.8 mph - N/A   Clear
11:53 AM 51.1 °F - 30.0 °F 44% 29.90 in 10.0 mi SW 17.3 mph - N/A   Clear
12:53 PM 54.0 °F - 30.0 °F 40% 29.89 in 10.0 mi WSW 12.7 mph - N/A   Clear
1:53 PM 57.9 °F - 30.0 °F 35% 29.86 in 10.0 mi WSW 11.5 mph - N/A   Clear
2:53 PM 59.0 °F - 26.1 °F 28% 29.88 in 10.0 mi West 10.4 mph - N/A   Clear
3:28 PM 55.4 °F - 21.2 °F 26% 29.93 in 10.0 mi North 17.3 mph - N/A   Clear
3:53 PM 54.0 °F - 21.9 °F 29% 29.94 in 10.0 mi North 13.8 mph - N/A   Clear
4:53 PM 50.0 °F - 24.1 °F 36% 29.98 in 10.0 mi North 10.4 mph - N/A   Clear
5:53 PM 43.0 °F 36.8 °F 26.1 °F 51% 30.04 in 10.0 mi North 11.5 mph - N/A   Clear
6:53 PM 37.0 °F 31.0 °F 26.1 °F 65% 30.09 in 10.0 mi North 8.1 mph - N/A   Clear
7:53 PM 37.0 °F 29.8 °F 26.1 °F 65% 30.12 in 10.0 mi North 10.4 mph - N/A   Clear
8:53 PM 35.1 °F 26.9 °F 26.1 °F 70% 30.15 in 10.0 mi North 11.5 mph - N/A   Clear
9:53 PM 35.1 °F 26.9 °F 26.1 °F 70% 30.16 in 10.0 mi North 11.5 mph - N/A   Clear
10:53 PM 34.0 °F 26.0 °F 26.1 °F 73% 30.17 in 10.0 mi North 10.4 mph - N/A   Clear
11:53 PM 34.0 °F - 25.0 °F 70% 30.18 in 10.0 mi Calm Calm - N/A   Clear